Location: Cerezo de Arriba
(41.2389°N, 3.5585°W)
Time: 03:04:21
(UTC+00:00)

Cosmos 1833 Rocket - Pass Details

Date: 19 May 2025
Orbit: 832 x 838 km, 71.0° (Epoch: 23 June)

Event Time Altitude Azimuth Distance (km) Brightness Sun altitude
Rises 22:03:11 0° 229° (SW) 3,377 5.8 -22.0°
Reaches altitude 10° 22:05:50 10° 239° (WSW) 2,447 5.1 -22.3°
Maximum altitude 22:10:53 33° 303° (WNW) 1,371 4.3 -22.8°
Drops below altitude 10° 22:15:58 10° 7° (N) 2,461 5.8 -23.2°
Sets 22:18:40 0° 17° (NNE) 3,398 6.5 -23.5°
